Weather History for Scottsbluff, NE

Change the Weather History Date:

Sunday, April 28, 2013

  Actual Average Record
Temperature  
Mean Temperature 59 °F 51 °F  
Max Temperature 79 °F 66 °F 93 °F (1910)
Min Temperature 38 °F 36 °F 20 °F (1984)
Degree Days  
Heating Degree Days 6 14  
Month to date heating degree days 687 524  
Since 1 July heating degree days 6025 6265  
Cooling Degree Days 0 0  
Month to date cooling degree days 0 0  
Year to date cooling degree days 0 0  
Growing Degree Days 10 (Base 50)    
Moisture  
Dew Point 38 °F    
Average Humidity 47    
Maximum Humidity 60    
Minimum Humidity 33    
Precipitation  
Precipitation 0.00 in 0.07 in 1.04 in (1940)
Month to date precipitation 2.25 1.69  
Year to date precipitation 3.00 3.70  
Snow  
Snow 0.00 in 0.10 in 5.40 in (2005)
Month to date snowfall 21.9 5.2  
Since 1 July snowfall 44.8 41.4  
Snow Depth 0.00 in    
Sea Level Pressure  
Sea Level Pressure 29.79 in    
Wind  
Wind Speed 12 mph (North)    
Max Wind Speed 29 mph    
Max Gust Speed 36 mph    
Visibility 10 miles    
Events      
T = Trace of Precipitation, MM = Missing Value Source: NWS Daily Summary

Daily Weather History Graph

Daily Weather History Graph

Search for Another Location

Airport:

Trip Planner

Search our weather history database for the weather conditions in past years. The results will help you decide how hot, cold, wet, or windy it might be!

Date:

Astronomy

Apr. 28, 2013 Rise Set
Actual Time 5:54 AM MDT 7:50 PM MDT
Civil Twilight 5:24 AM MDT 8:20 PM MDT
Nautical Twilight 4:47 AM MDT 8:57 PM MDT
Astronomical Twilight 4:07 AM MDT 9:37 PM MDT
Moon 11:24 PM MDT (4/28) 8:11 AM MDT (4/28)
Length of Visible Light 14h 56m
Length of Day
13h 55m
Waning Gibbous, 88% of the Moon is Illuminated
Apr 28
Waning Gibbous
May 2
Last Quarter
May 9
New
May 17
First Quarter
May 24
Full

Hourly Weather History & Observations

Time (MDT) Temp. Windchill Dew Point Humidity Pressure Visibility Wind Dir Wind Speed Gust Speed Precip Events Conditions
12:53 AM 42.1 °F - 28.9 °F 60% 29.83 in 10.0 mi Calm Calm - N/A   Clear
1:53 AM 42.1 °F 40.2 °F 28.0 °F 58% 29.81 in 10.0 mi North 3.5 mph - N/A   Clear
2:53 AM 42.1 °F 37.7 °F 28.0 °F 58% 29.80 in 10.0 mi North 6.9 mph - N/A   Clear
3:53 AM 43.0 °F 40.3 °F 28.0 °F 56% 29.80 in 10.0 mi NNW 4.6 mph - N/A   Clear
4:53 AM 42.1 °F 36.6 °F 28.9 °F 60% 29.80 in 10.0 mi NW 9.2 mph - N/A   Clear
5:53 AM 41.0 °F 37.1 °F 28.9 °F 62% 29.81 in 10.0 mi NNW 5.8 mph - N/A   Clear
6:53 AM 45.0 °F 43.5 °F 30.0 °F 56% 29.81 in 10.0 mi NW 3.5 mph - N/A   Clear
7:53 AM 57.0 °F - 33.1 °F 40% 29.80 in 10.0 mi NW 10.4 mph - N/A   Clear
8:53 AM 59.0 °F - 33.1 °F 38% 29.81 in 10.0 mi WNW 13.8 mph - N/A   Clear
9:53 AM 69.1 °F - 41.0 °F 36% 29.79 in 10.0 mi WNW 16.1 mph - N/A   Clear
10:53 AM 75.0 °F - 46.0 °F 36% 29.78 in 10.0 mi NW 17.3 mph 21.9 mph N/A   Clear
11:53 AM 77.0 °F - 46.9 °F 34% 29.79 in 10.0 mi NW 26.5 mph 34.5 mph N/A   Clear
12:53 PM 78.1 °F - 48.9 °F 36% 29.79 in 10.0 mi WNW 18.4 mph 23.0 mph N/A   Clear
1:53 PM 77.0 °F - 48.0 °F 36% 29.79 in 10.0 mi NNE 11.5 mph 24.2 mph N/A   Clear
2:53 PM 75.9 °F - 46.9 °F 36% 29.78 in 10.0 mi NNW 8.1 mph 16.1 mph N/A   Clear
3:53 PM 75.9 °F - 48.0 °F 37% 29.75 in 10.0 mi North 8.1 mph - N/A   Clear
4:53 PM 75.0 °F - 46.0 °F 36% 29.76 in 10.0 mi ENE 17.3 mph - N/A   Clear
5:53 PM 72.0 °F - 44.1 °F 37% 29.76 in 10.0 mi ENE 16.1 mph - N/A   Clear
6:53 PM 68.0 °F - 39.9 °F 36% 29.79 in 10.0 mi ENE 11.5 mph - N/A   Overcast
7:53 PM 64.9 °F - 37.9 °F 37% 29.79 in 10.0 mi ENE 9.2 mph - N/A   Overcast
8:53 PM 59.0 °F - 36.0 °F 42% 29.80 in 10.0 mi East 11.5 mph - N/A   Partly Cloudy
9:53 PM 55.9 °F - 37.0 °F 49% 29.80 in 10.0 mi ENE 18.4 mph - N/A   Clear
10:53 PM 54.0 °F - 37.0 °F 53% 29.80 in 10.0 mi ENE 16.1 mph - N/A   Clear
11:53 PM 52.0 °F - 36.0 °F 54% 29.81 in 10.0 mi ESE 6.9 mph - N/A   Clear